[[{"header":{"parameterUnit":"m.s-1","parameterCategory":1,"la1":30.2992,"la2":30.254,"lo1":-89.0895,"lo2":-89.0443,"dy":0.0025,"dx":0.0025,"nx":19,"ny":19,"refTime":"2026-05-05T21:00:00:Z","depth":0,"parameterNumber":2,"parameterNumberName":"U-component_of_WINDS"},"data":[0,0,0,-0.223,-0.2232,-0.2336,-0.2337,-0.2464,-0.2465,0,0,0,0,0,0,0,0,0,0,0,-0.2193,-0.2193,-0.223,-0.2233,-0.2336,-0.2337,-0.2464,-0.2465,0,0,0,0,0,0,0,0,0,0,0,-0.2193,-0.2193,-0.2194,-0.2233,-0.2336,-0.2337,-0.2463,-0.2388,0,0,0,0,0,0,0,0,0,0,-0.2289,-0.2246,-0.2193,-0.2194,-0.2233,-0.2336,-0.2337,-0.2384,-0.2393,-0.2413,0,-0.2427,0,-0.2448,-0.2473,-0.2473,0,0,0,-0.2239,-0.2239,-0.2273,-0.2194,-0.2234,-0.2336,-0.2291,-0.2389,-0.2398,-0.2424,-0.2429,-0.2434,-0.245,-0.2473,-0.2474,-0.2567,-0.2567,0,0,-0.2233,-0.2208,-0.2267,-0.2279,-0.2258,-0.2288,-0.2294,-0.2395,-0.24,-0.2429,-0.2437,-0.2452,-0.2474,-0.2475,-0.2567,-0.2567,0,0,0,-0.2212,-0.2204,-0.2236,-0.2273,-0.2292,-0.2291,-0.2298,-0.2395,-0.2407,-0.2438,-0.2453,-0.2475,-0.2476,-0.2567,-0.2567,-0.255,0,0,0,-0.2209,-0.2192,-0.2233,-0.2219,-0.229,-0.2344,-0.2296,-0.24,-0.2412,-0.2453,-0.2475,-0.2477,-0.2567,-0.2567,-0.255,-0.2547,0,0,0,-0.2189,-0.219,-0.2202,-0.2218,-0.2261,-0.2343,-0.2361,-0.2403,-0.2421,-0.2473,-0.2478,-0.2567,-0.2567,-0.255,-0.2547,-0.2564,0,0,0,-0.216,-0.2187,-0.2201,-0.2238,-0.226,-0.2331,-0.2361,-0.2416,-0.2458,-0.2476,-0.2567,-0.2567,-0.255,-0.2547,-0.2564,-0.2575,-0.2576,0,0,-0.218,-0.2188,-0.2211,-0.2228,-0.2289,-0.2317,-0.2378,-0.2441,-0.247,-0.2534,-0.2537,-0.255,-0.2547,-0.2564,-0.2594,-0.2595,0,0,0,-0.221,-0.2226,-0.2248,-0.2285,-0.2333,-0.2375,-0.2431,-0.2455,-0.251,-0.2496,-0.2562,-0.2561,-0.2572,-0.2578,-0.2579,-0.2592,-0.2569,-0.2569,-0.2569,-0.2203,-0.2237,-0.2278,-0.2325,-0.2362,-0.242,-0.2454,-0.2497,-0.2521,-0.2536,-0.2555,-0.2569,-0.2575,-0.2576,-0.2588,-0.2563,-0.2563,-0.2563,-0.2563,-0.2236,-0.2265,-0.2296,-0.2347,-0.2384,-0.2429,-0.2488,-0.2503,-0.2553,-0.2557,-0.2569,-0.2571,-0.2576,-0.2589,-0.2562,-0.2563,-0.2563,-0.2563,-0.2563,-0.2236,-0.2255,-0.2283,-0.2342,-0.2385,-0.2433,-0.2478,-0.2511,-0.2543,-0.2554,-0.2579,-0.258,-0.2585,-0.2564,-0.2564,-0.2564,-0.2564,-0.2564,-0.2564,-0.2224,-0.2256,-0.2288,-0.2341,-0.2371,-0.2415,-0.2475,-0.2506,-0.255,-0.257,-0.2571,-0.2595,-0.257,-0.2563,-0.2565,-0.2565,-0.2565,-0.2564,-0.2564,-0.2245,-0.2246,-0.2296,-0.2325,-0.2392,-0.2434,-0.2475,-0.2536,-0.2568,-0.259,-0.2612,-0.2587,-0.2599,-0.2598,-0.2593,-0.2603,-0.2603,-0.2603,-0.2603,-0.2245,-0.2254,-0.2313,-0.2358,-0.2407,-0.245,-0.2509,-0.2558,-0.2608,-0.263,-0.2634,-0.263,-0.2628,-0.2641,-0.2639,-0.2635,-0.2655,-0.2655,-0.2655,-0.2261,-0.2276,-0.2318,-0.2364,-0.242,-0.2468,-0.2525,-0.2579,-0.2638,-0.2658,-0.2649,-0.2647,-0.264,-0.2636,-0.2656,-0.2653,-0.2646,0,0]},{"header":{"parameterUnit":"m.s-1","parameterCategory":1,"la1":30.2992,"la2":30.254,"lo1":-89.0895,"lo2":-89.0443,"dy":0.0025,"dx":0.0025,"nx":19,"ny":19,"refTime":"2026-05-05T21:00:00:Z","depth":0,"parameterNumber":3,"parameterNumberName":"V-component_of_WINDS"},"data":[0,0,0,5.4179,5.4181,5.4265,5.4265,5.4384,5.4385,0,0,0,0,0,0,0,0,0,0,0,5.4165,5.4166,5.4179,5.4181,5.4265,5.4265,5.4384,5.4385,0,0,0,0,0,0,0,0,0,0,0,5.4165,5.4166,5.4168,5.4182,5.4265,5.4265,5.4383,5.4315,0,0,0,0,0,0,0,0,0,0,5.4232,5.4231,5.4166,5.4168,5.4182,5.4265,5.4265,5.4312,5.432,5.4352,0,5.4388,0,5.4389,5.4394,5.4395,0,0,0,5.4172,5.4224,5.4237,5.4168,5.4183,5.4264,5.4224,5.4316,5.4325,5.4363,5.4389,5.4393,5.4391,5.4395,5.4396,5.4622,5.4623,0,0,5.4168,5.4186,5.4231,5.4243,5.4235,5.4222,5.4227,5.4321,5.435,5.439,5.4396,5.4393,5.4396,5.4397,5.4621,5.4622,0,0,0,5.416,5.4183,5.4193,5.4239,5.4253,5.4224,5.4231,5.4346,5.4347,5.4397,5.4394,5.4397,5.4399,5.4619,5.4621,5.4712,0,0,0,5.4157,5.4179,5.4191,5.4203,5.4252,5.4301,5.4254,5.4341,5.4351,5.4393,5.4397,5.44,5.4617,5.462,5.4706,5.4752,0,0,0,5.4156,5.4178,5.4194,5.4204,5.4241,5.4299,5.4306,5.4343,5.435,5.4395,5.44,5.4616,5.462,5.4701,5.4743,5.4816,0,0,0,5.4159,5.4274,5.4196,5.4323,5.424,5.4356,5.4306,5.439,5.444,5.4398,5.4618,5.4621,5.4699,5.4737,5.481,5.488,5.4911,0,0,5.4314,5.4293,5.4366,5.4299,5.4434,5.4342,5.4488,5.4515,5.4502,5.4582,5.4587,5.4708,5.4742,5.4814,5.5081,5.5106,0,0,0,5.4421,5.4474,5.4505,5.4554,5.4579,5.4602,5.4606,5.4615,5.4682,5.4548,5.4754,5.4773,5.4815,5.4847,5.4869,5.4902,5.4637,5.4637,5.4636,5.4666,5.4644,5.4762,5.4749,5.4796,5.4798,5.4833,5.4845,5.4808,5.4857,5.4881,5.5045,5.5084,5.51,5.5135,5.4916,5.4917,5.4917,5.4917,5.489,5.496,5.4907,5.5003,5.4977,5.5056,5.506,5.5031,5.5098,5.5026,5.5061,5.4984,5.5128,5.5158,5.4924,5.4923,5.4922,5.4921,5.4921,5.5048,5.5077,5.5088,5.5154,5.5207,5.5188,5.5256,5.5229,5.5204,5.524,5.526,5.5259,5.5253,5.5251,5.5252,5.5253,5.5253,5.5253,5.5254,5.5207,5.5216,5.5277,5.5311,5.5338,5.5369,5.5369,5.5393,5.5413,5.5388,5.5388,5.5345,5.5147,5.5097,5.5263,5.5261,5.526,5.5259,5.5258,5.5442,5.5384,5.5479,5.5506,5.5541,5.5594,5.5559,5.5611,5.5627,5.566,5.5609,5.5467,5.5443,5.5426,5.5385,5.5614,5.5614,5.5614,5.5615,5.5575,5.556,5.565,5.5693,5.5733,5.571,5.5814,5.5814,5.5805,5.5812,5.5775,5.5718,5.5702,5.5687,5.5665,5.5626,5.5912,5.5912,5.5912,5.5717,5.5705,5.58,5.5792,5.5817,5.5838,5.5934,5.5984,5.5961,5.5923,5.5817,5.5805,5.5712,5.5684,5.5645,5.561,5.5537,0,0]}]]